Wind_Speed
10 11 11 11 11 12 12 12 12 12 12 12 13 12 12 12 13 13 13 13 13 13 14 14 15 15 15 15 16 15 14 15 15 15 15 15 16 16 16 16 16 16 16
10 11 11 11 12 12 13 13 13 13 13 13 13 13 13 13 13 14 14 14 13 14 14 16 16 16 16 16 16 15 15 15 15 15 16 16 17 17 17 17 17 17 17
11 11 12 12 13 14 14 14 13 13 14 14 14 14 14 14 14 15 14 14 14 15 15 16 17 17 18 17 17 16 16 16 16 16 16 17 17 18 19 19 19 19 18
11 12 12 13 14 14 14 14 14 14 14 15 15 14 15 15 15 15 15 14 14 15 16 16 16 17 18 17 18 18 18 17 17 17 17 18 18 18 19 20 20 20 19
11 12 13 13 14 14 14 15 15 15 15 15 16 15 15 15 15 16 16 16 16 16 16 17 18 18 18 19 19 20 20 19 19 18 18 19 19 19 20 21 21 22 21
11 12 13 13 14 14 14 14 14 15 15 15 15 15 15 16 16 16 16 16 17 16 16 17 18 19 19 19 20 21 21 21 21 20 19 20 20 21 21 21 23 23 23
11 12 12 13 14 13 14 14 14 14 15 15 15 15 15 16 16 16 16 17 17 17 17 17 18 19 19 19 20 21 22 22 22 21 21 21 21 21 22 22 23 24 24
12 12 12 13 13 13 14 14 14 15 14 15 15 15 15 15 15 16 17 17 17 17 18 18 18 18 18 19 20 21 22 22 23 23 22 22 21 22 23 23 24 26 26
12 12 13 14 14 14 14 14 15 14 14 15 14 15 16 16 16 16 16 17 18 18 19 19 19 19 20 21 22 22 23 23 24 24 25 25 24 23 24 25 25 26 27
12 12 12 13 13 13 13 13 14 14 14 14 15 16 16 17 17 16 17 18 19 19 20 20 20 21 22 23 24 24 24 24 25 25 26 27 27 27 26 26 26 26 27
12 12 12 12 12 12 12 13 14 14 14 15 16 16 16 17 17 17 17 18 18 19 20 21 22 22 23 23 24 24 25 26 26 26 26 26 27 27 27 28 27 26 27
12 13 13 12 12 12 13 14 14 15 15 15 16 16 16 17 18 18 17 18 18 19 20 21 22 23 23 24 24 25 25 26 27 27 28 28 28 28 28 28 29 29 28
11 11 12 12 13 13 14 14 14 15 15 15 15 16 17 17 17 18 18 18 19 19 20 20 21 22 23 23 24 25 26 26 26 27 28 29 29 29 29 28 28 29 29
11 11 11 11 12 12 13 13 13 14 14 15 15 16 16 17 17 17 18 19 20 20 20 20 20 21 22 22 23 25 26 26 27 27 28 29 29 30 30 30 30 30 30
11 11 11 11 12 12 12 12 13 14 15 15 15 15 16 17 17 17 18 19 19 20 20 20 20 20 21 21 22 24 25 25 26 27 27 28 29 29 29 29 30 30 30
10 11 11 12 13 13 13 13 14 14 14 15 15 16 16 17 17 18 18 19 19 19 19 19 20 20 21 22 23 23 24 25 25 26 26 27 27 28 28 29 30 31 31
11 11 11 11 12 12 13 13 14 14 14 15 16 16 16 17 18 18 18 18 18 18 18 19 20 20 20 22 23 24 25 25 25 26 27 27 26 27 28 29 30 30 31
12 12 12 12 13 13 12 13 13 14 15 15 16 16 16 16 17 18 18 18 18 18 18 18 19 19 20 21 21 23 24 25 25 26 27 27 27 28 28 29 30 31 31
13 13 13 13 13 13 13 13 14 14 15 16 16 16 16 17 17 17 17 18 17 17 18 19 18 20 21 21 22 23 24 25 26 26 27 28 27 28 28 29 30 31 32
15 14 14 14 14 13 14 14 15 15 15 15 16 16 16 16 16 17 18 18 19 19 19 20 20 21 21 22 23 23 23 24 25 26 27 27 27 27 28 29 30 31 32
15 15 14 13 13 14 15 15 15 15 15 16 16 17 18 18 18 18 18 19 20 20 21 22 22 23 23 23 23 24 24 24 25 25 25 26 26 27 27 28 29 30 31
15 15 15 14 14 15 15 15 15 15 16 16 16 16 17 18 18 18 19 19 19 20 21 22 22 23 23 23 23 23 23 24 24 24 24 24 25 26 26 27 28 30 31
16 16 15 15 15 15 16 16 17 17 17 17 16 16 17 18 18 19 19 19 20 21 21 22 22 22 22 22 23 23 23 23 23 23 24 23 24 25 26 27 28 29 30
15 16 16 16 17 17 17 18 18 19 19 18 18 18 18 19 19 19 19 20 20 21 21 21 21 21 22 22 22 22 23 23 23 23 24 24 25 25 25 26 26 27 28
18 18 19 19 19 20 20 20 20 20 20 20 19 19 19 19 19 19 20 20 21 21 21 21 22 22 22 22 22 22 22 23 23 23 24 24 25 25 25 25 26 26 27
20 20 20 21 21 22 22 21 21 21 21 21 21 21 21 20 20 20 20 20 21 21 21 22 23 23 23 23 24 24 23 24 24 24 25 25 25 26 26 26 27 27 28
Wind_Direction
250 253 249 246 244 247 249 251 252 258 261 260 258 257 258 258 259 254 251 250 249 250 251 248 249 251 247 246 244 245 249 252 251 251 252 251 247 244 242 241 238 240 240
253 255 251 250 250 250 251 255 256 262 264 261 259 259 260 261 260 254 254 253 252 253 251 249 250 250 251 246 244 246 250 251 249 250 251 250 251 248 246 241 240 241 241
254 256 255 254 257 256 255 256 256 259 261 259 259 259 261 261 261 258 257 256 256 253 252 253 253 251 251 247 247 249 250 251 250 251 251 251 250 249 246 242 241 242 241
256 258 259 259 260 259 255 256 258 259 261 262 262 261 262 263 262 261 258 258 259 258 254 252 251 252 252 250 249 249 249 250 251 252 252 252 251 249 246 243 242 243 242
261 260 261 261 260 260 256 256 257 259 260 262 261 260 260 263 263 260 257 257 259 259 259 255 251 251 252 253 252 250 249 250 252 253 253 252 249 249 246 246 246 244 244
264 264 263 262 260 260 261 262 264 260 258 260 261 262 262 263 263 260 258 259 262 263 261 257 253 253 253 253 253 252 250 251 253 255 253 252 249 247 247 248 247 246 245
265 266 266 267 265 261 262 265 263 262 258 260 262 264 265 265 263 261 260 259 261 262 260 258 255 253 252 253 253 252 251 251 252 253 253 254 252 248 247 246 247 247 247
268 268 268 268 266 261 262 263 260 260 261 261 264 266 265 266 264 263 262 260 261 262 261 261 258 255 253 256 256 255 254 252 250 251 253 254 254 251 250 247 248 249 248
272 270 271 270 266 266 265 265 263 260 263 264 265 266 266 266 268 266 266 264 263 262 262 262 262 260 258 258 258 258 256 255 253 251 253 255 255 254 253 251 250 250 249
274 274 275 274 268 264 264 265 266 265 266 265 265 265 265 267 269 267 266 265 263 263 261 261 260 258 259 260 259 258 258 257 256 253 255 256 255 254 253 253 252 250 249
276 273 279 277 270 265 269 271 271 270 269 268 269 267 267 268 267 269 269 268 268 267 266 263 263 261 260 260 260 259 259 258 259 258 258 257 256 254 254 254 252 252 250
281 278 278 273 268 268 272 271 272 273 272 269 268 267 266 268 267 268 269 270 269 270 269 266 265 263 263 261 260 260 261 262 263 262 261 260 260 257 258 256 253 252 252
281 280 280 271 270 271 271 272 274 272 272 272 270 268 267 267 267 268 269 269 271 272 271 269 268 266 264 263 262 262 263 264 265 265 264 262 261 259 261 259 256 254 254
281 282 286 278 277 275 273 271 272 274 274 275 276 273 270 268 268 269 268 269 272 273 274 273 273 270 267 266 266 265 266 267 267 266 266 264 262 260 259 258 258 256 255
282 278 285 280 279 278 275 273 273 277 276 276 278 275 271 268 271 273 270 270 273 274 274 273 274 272 269 269 270 270 269 269 267 267 267 267 263 262 259 257 257 257 256
282 280 282 281 276 274 271 272 274 276 276 277 277 276 272 270 271 272 270 272 274 274 274 275 275 274 273 270 271 271 271 271 269 267 267 267 265 262 259 258 258 259 257
281 280 281 279 276 277 277 277 279 280 280 281 281 278 277 274 273 273 273 273 274 274 275 276 277 277 277 276 275 272 271 271 271 269 267 266 265 264 262 260 260 259 257
281 280 281 279 276 274 278 279 281 283 282 286 287 284 284 282 279 278 277 276 276 276 276 279 279 279 279 280 278 276 274 273 272 271 269 267 267 266 265 263 261 259 258
279 280 280 280 278 275 277 280 282 284 284 285 287 288 288 288 286 283 281 278 276 276 277 279 280 281 281 282 281 279 279 277 275 273 271 269 269 267 266 265 262 259 258
277 276 282 280 278 279 280 280 280 283 287 291 290 290 290 290 292 289 285 279 276 275 276 279 280 281 281 282 283 282 281 281 279 275 274 271 270 269 269 266 263 261 260
276 277 281 283 282 283 284 284 282 285 289 291 290 289 288 287 290 290 287 283 281 279 279 281 282 282 282 282 285 286 285 284 283 279 276 274 272 270 269 267 265 262 261
274 276 279 281 282 283 285 286 283 284 288 288 288 288 286 286 288 290 289 286 285 285 284 283 283 282 282 282 283 285 285 284 284 280 277 275 275 272 269 267 265 264 263
274 275 276 280 281 283 284 283 283 285 287 289 288 289 290 290 290 290 289 287 287 286 285 284 283 282 282 281 282 282 282 282 282 280 278 278 277 274 270 269 268 267 266
272 276 279 282 282 283 284 285 286 284 285 288 287 287 288 289 288 289 288 289 289 288 288 286 285 283 282 283 282 281 281 282 282 281 280 278 277 275 273 272 270 270 268
273 276 278 280 282 284 285 286 286 286 286 287 287 287 288 289 289 289 289 289 289 288 287 286 286 286 285 284 283 284 285 285 283 282 281 280 279 278 277 277 275 274 273
274 275 277 280 282 282 282 284 286 286 287 288 288 288 289 289 289 289 288 289 290 289 287 287 287 287 286 285 285 286 287 286 284 283 283 282 280 278 277 276 275 274 273
Height
5848 5848 5849 5849 5850 5851 5852 5852 5853 5853 5853 5854 5854 5854 5855 5856 5856 5856 5857 5858 5858 5859 5859 5860 5860 5861 5862 5863 5864 5864 5866 5866 5867 5868 5868 5870 5871 5872 5873 5874 5875 5876 5877
5845 5845 5846 5847 5847 5847 5848 5849 5849 5850 5850 5850 5851 5851 5852 5852 5852 5853 5853 5854 5854 5855 5855 5856 5857 5857 5858 5859 5860 5861 5862 5863 5863 5864 5865 5866 5867 5868 5870 5871 5872 5873 5874
5843 5843 5843 5844 5844 5844 5845 5845 5846 5847 5847 5847 5848 5848 5848 5849 5849 5849 5849 5850 5850 5851 5851 5852 5853 5854 5854 5855 5856 5857 5858 5859 5859 5860 5861 5862 5862 5864 5865 5866 5868 5869 5871
5839 5840 5840 5840 5841 5841 5841 5842 5843 5843 5843 5844 5844 5844 5845 5845 5845 5845 5846 5846 5846 5847 5847 5848 5849 5849 5850 5851 5852 5853 5854 5855 5855 5856 5857 5857 5858 5859 5861 5862 5864 5865 5867
5837 5837 5837 5837 5837 5837 5838 5838 5839 5839 5839 5840 5840 5840 5841 5841 5841 5841 5842 5842 5842 5842 5843 5844 5844 5845 5845 5846 5847 5848 5849 5850 5851 5851 5852 5853 5853 5854 5856 5857 5859 5861 5862
5834 5834 5834 5834 5834 5834 5834 5835 5835 5835 5835 5836 5836 5836 5836 5837 5837 5837 5837 5837 5838 5838 5838 5839 5839 5840 5841 5841 5843 5844 5844 5845 5846 5846 5847 5848 5849 5849 5850 5852 5854 5855 5857
5831 5831 5831 5831 5831 5831 5831 5831 5831 5832 5832 5832 5832 5832 5832 5832 5832 5833 5833 5833 5833 5833 5834 5834 5834 5835 5836 5836 5837 5838 5839 5840 5841 5841 5842 5843 5843 5844 5845 5847 5848 5850 5852
5828 5827 5827 5827 5827 5827 5828 5828 5828 5828 5828 5828 5828 5828 5828 5829 5828 5828 5828 5828 5829 5829 5829 5829 5829 5830 5830 5831 5832 5833 5834 5834 5835 5836 5837 5837 5838 5839 5840 5841 5842 5844 5846
5824 5824 5824 5824 5824 5824 5824 5824 5824 5824 5824 5824 5824 5824 5824 5824 5824 5824 5823 5824 5824 5824 5825 5825 5825 5825 5826 5826 5827 5827 5828 5829 5829 5830 5831 5832 5832 5833 5834 5835 5836 5838 5840
5821 5821 5820 5820 5820 5820 5820 5820 5820 5820 5820 5820 5819 5819 5819 5819 5819 5819 5819 5819 5819 5819 5820 5820 5820 5820 5820 5821 5821 5822 5822 5823 5823 5824 5825 5825 5826 5827 5828 5829 5830 5832 5833
5818 5818 5817 5817 5817 5817 5817 5817 5816 5816 5816 5815 5815 5814 5814 5814 5813 5814 5814 5814 5814 5814 5814 5814 5814 5815 5815 5815 5816 5816 5817 5817 5816 5817 5818 5818 5819 5820 5821 5822 5823 5825 5826
5815 5815 5814 5814 5814 5814 5813 5813 5813 5812 5812 5811 5810 5809 5809 5809 5809 5809 5809 5809 5809 5809 5809 5808 5809 5809 5809 5809 5810 5810 5810 5810 5810 5811 5811 5812 5812 5813 5814 5815 5816 5818 5819
5813 5812 5811 5811 5810 5810 5810 5809 5809 5808 5808 5807 5806 5805 5804 5804 5804 5804 5804 5804 5804 5804 5803 5803 5803 5803 5803 5803 5803 5804 5804 5804 5804 5804 5804 5805 5805 5806 5807 5808 5809 5810 5812
5810 5810 5809 5808 5807 5807 5806 5806 5805 5804 5803 5802 5802 5801 5800 5800 5800 5799 5799 5799 5799 5799 5798 5798 5797 5797 5797 5797 5797 5797 5797 5797 5797 5798 5798 5798 5798 5799 5800 5801 5802 5803 5804
5807 5807 5806 5805 5805 5804 5803 5803 5802 5801 5800 5798 5798 5796 5796 5795 5795 5794 5794 5794 5794 5794 5793 5792 5792 5791 5791 5791 5791 5791 5791 5791 5791 5791 5791 5791 5791 5791 5792 5793 5794 5796 5797
5804 5804 5803 5802 5802 5801 5800 5799 5798 5797 5796 5795 5794 5793 5792 5791 5790 5790 5790 5789 5789 5788 5788 5787 5787 5786 5786 5785 5785 5785 5784 5784 5784 5784 5784 5784 5784 5784 5785 5786 5787 5788 5789
5802 5801 5800 5799 5799 5798 5797 5796 5795 5794 5793 5792 5791 5789 5788 5787 5786 5785 5785 5784 5783 5783 5782 5782 5781 5781 5780 5780 5779 5778 5778 5777 5777 5777 5777 5777 5777 5777 5778 5779 5779 5780 5781
5799 5798 5797 5797 5795 5794 5793 5792 5791 5790 5789 5788 5787 5786 5784 5783 5782 5781 5780 5779 5779 5778 5777 5777 5776 5775 5774 5774 5773 5772 5771 5770 5770 5770 5770 5770 5770 5770 5771 5771 5772 5772 5773
5796 5795 5794 5793 5792 5791 5790 5789 5788 5787 5786 5785 5783 5782 5780 5779 5778 5777 5775 5775 5774 5773 5773 5772 5771 5770 5769 5768 5767 5766 5764 5764 5763 5762 5762 5762 5762 5763 5763 5763 5763 5764 5765
5792 5791 5791 5789 5788 5787 5786 5785 5784 5783 5782 5780 5779 5778 5776 5775 5774 5772 5771 5770 5769 5768 5767 5766 5765 5764 5763 5762 5761 5760 5758 5757 5756 5755 5754 5754 5754 5754 5755 5755 5756 5756 5756
5788 5787 5787 5785 5784 5783 5782 5781 5780 5779 5778 5776 5775 5773 5772 5771 5769 5768 5766 5765 5764 5763 5762 5761 5760 5758 5757 5756 5755 5753 5752 5750 5748 5747 5747 5746 5746 5746 5746 5747 5747 5747 5748
5784 5783 5782 5781 5780 5779 5778 5777 5776 5775 5774 5772 5770 5768 5767 5766 5765 5763 5762 5760 5759 5758 5756 5755 5754 5752 5751 5750 5748 5747 5745 5744 5742 5741 5740 5739 5738 5738 5738 5738 5738 5739 5739
5779 5779 5778 5777 5776 5775 5774 5773 5771 5770 5769 5767 5766 5764 5762 5761 5760 5758 5756 5755 5754 5752 5751 5749 5748 5746 5745 5744 5742 5740 5739 5737 5736 5734 5733 5732 5731 5730 5730 5730 5730 5730 5730
5775 5774 5773 5772 5771 5770 5769 5768 5766 5765 5764 5762 5761 5759 5757 5756 5754 5753 5751 5750 5748 5746 5745 5743 5742 5740 5739 5737 5735 5734 5732 5731 5729 5727 5726 5725 5724 5723 5722 5722 5722 5722 5722
5770 5769 5768 5767 5765 5764 5763 5762 5761 5759 5758 5757 5755 5754 5752 5751 5749 5747 5746 5744 5742 5740 5738 5737 5736 5734 5732 5731 5729 5727 5726 5724 5722 5721 5719 5718 5717 5716 5715 5715 5714 5714 5714
5764 5763 5762 5761 5759 5758 5757 5755 5754 5753 5752 5750 5749 5748 5746 5745 5743 5742 5740 5738 5736 5734 5732 5731 5729 5728 5726 5724 5722 5720 5719 5717 5715 5714 5712 5711 5710 5709 5708 5707 5706 5706 5706